New Iberia, LA

2:53 PM CDT on July 21, 2017 (GMT -0500)
Acadiana Regional

Weather History for KARA - November, 2012

Change the Weather History Date:

Sunday, November 25, 2012

  Actual Average Record
Temperature  
Mean Temperature 54 °F 58 °F  
Max Temperature 70 °F 69 °F 83 °F (1973)
Min Temperature 37 °F 48 °F 25 °F (1950)
Degree Days  
Heating Degree Days 11 8  
Month to date heating degree days 131 119  
Since 1 July heating degree days 173 153  
Cooling Degree Days 0 1  
Month to date cooling degree days 46 38  
Year to date cooling degree days 3241 2783  
Growing Degree Days 4 (Base 50)    
Moisture  
Dew Point 43 °F    
Average Humidity 65    
Maximum Humidity 86    
Minimum Humidity 44    
Precipitation  
Precipitation 0.00 in 0.19 in 2.56 in (1979)
Month to date precipitation 1.89 3.27  
Year to date precipitation 48.46 53.71  
Sea Level Pressure  
Sea Level Pressure 30.14 in    
Wind  
Wind Speed 5 mph (SSE)    
Max Wind Speed 13 mph    
Max Gust Speed 16 mph    
Visibility 10 miles    
Events      
T = Trace of Precipitation, MM = Missing Value Source: NWS Daily Summary

Daily Weather History Graph

Daily Weather History Graph

Search for Another Location

Airport or City:

Trip Planner

Search our weather history database for the weather conditions in past years. The results will help you decide how hot, cold, wet, or windy it might be!

Date:

Astronomy

Nov. 25, 2012 Rise Set
Actual Time 6:41 AM CST 5:07 PM CST
Civil Twilight 6:15 AM CST 5:33 PM CST
Nautical Twilight 5:46 AM CST 6:02 PM CST
Astronomical Twilight 5:17 AM CST 6:31 PM CST
Moon 3:18 PM CST (11/25) 4:03 AM CST (11/25)
Length of Visible Light 11h 18m
Length of Day
10h 26m
Waxing Gibbous, 93% of the Moon is Illuminated
Nov 25
Waxing Gibbous
Nov 28
Full
Dec 6
Last Quarter
Dec 13
New
Dec 19
First Quarter

Hourly Weather History & Observations

Time (CST) Temp. Windchill Dew Point Humidity Pressure Visibility Wind Dir Wind Speed Gust Speed Precip Events Conditions
12:53 AM 39.9 °F - 35.1 °F 83% 30.19 in 10.0 mi Calm Calm - N/A   Clear
1:53 AM 37.9 °F - 34.0 °F 86% 30.18 in 10.0 mi Calm Calm - N/A   Clear
2:53 AM 39.9 °F - 34.0 °F 79% 30.17 in 10.0 mi Calm Calm - N/A   Clear
3:53 AM 37.0 °F - 32.0 °F 82% 30.17 in 10.0 mi Calm Calm - N/A   Clear
4:53 AM 37.9 °F - 34.0 °F 86% 30.17 in 10.0 mi Calm Calm - N/A   Clear
5:53 AM 39.9 °F 37.8 °F 33.1 °F 77% 30.18 in 10.0 mi ENE 3.5 mph - N/A   Clear
6:53 AM 37.9 °F 35.5 °F 32.0 °F 79% 30.19 in 10.0 mi East 3.5 mph - N/A   Clear
7:53 AM 45.0 °F 43.5 °F 39.0 °F 80% 30.20 in 10.0 mi East 3.5 mph - N/A   Clear
8:53 AM 53.1 °F - 39.9 °F 61% 30.21 in 10.0 mi ESE 5.8 mph - N/A   Clear
9:53 AM 59.0 °F - 39.0 °F 48% 30.21 in 10.0 mi ESE 6.9 mph - N/A   Clear
10:53 AM 64.0 °F - 43.0 °F 46% 30.19 in 10.0 mi South 8.1 mph - N/A   Clear
11:53 AM 66.9 °F - 46.0 °F 47% 30.16 in 10.0 mi SSW 5.8 mph - N/A   Clear
12:53 PM 69.1 °F - 46.0 °F 44% 30.13 in 10.0 mi SSW 8.1 mph - N/A   Clear
1:53 PM 70.0 °F - 48.9 °F 47% 30.10 in 10.0 mi SSW 6.9 mph - N/A   Clear
2:53 PM 70.0 °F - 48.9 °F 47% 30.09 in 10.0 mi SSW 8.1 mph - N/A   Clear
3:53 PM 66.9 °F - 51.1 °F 57% 30.09 in 10.0 mi South 8.1 mph - N/A   Clear
4:53 PM 63.0 °F - 50.0 °F 63% 30.09 in 10.0 mi SSW 6.9 mph - N/A   Clear
5:53 PM 57.9 °F - 48.9 °F 72% 30.08 in 10.0 mi South 5.8 mph - N/A   Clear
6:53 PM 55.0 °F - 48.0 °F 77% 30.09 in 8.0 mi SE 4.6 mph - N/A   Clear
7:53 PM 57.0 °F - 51.1 °F 81% 30.10 in 10.0 mi SSE 6.9 mph - N/A   Clear
8:53 PM 55.9 °F - 50.0 °F 80% 30.09 in 10.0 mi SE 8.1 mph - N/A   Clear
9:53 PM 57.0 °F - 51.1 °F 81% 30.10 in 10.0 mi SSE 9.2 mph - N/A   Clear
10:53 PM 55.9 °F - 51.1 °F 84% 30.08 in 10.0 mi SE 9.2 mph - N/A   Clear
11:53 PM 55.9 °F - 52.0 °F 87% 30.07 in 10.0 mi SE 6.9 mph - N/A   Clear